www.pogodaiklimat.ru

Погода и климат >> Архив погоды >> Австрия >> Крумбах


ПОГОДА в Крумбахе

  • Прогноз погоды в Крумбахе
  • Монитор погоды в Крумбахе

АРХИВ ПОГОДЫ в Крумбахе

Время (UTC), дата Ветер
(напр.,м/с)
 
Видим.   Явления Облачность Т
(С)
Тd
(С)
f
(%)
Тe
(С)
Тes
(С)
Комфортность P
(гПа)
Po
(гПа)
Тmin
(С)
Tmax
(С)
R
(мм)
R24
(мм)
S
(см)
13 15.09 Ю 2 н/о н/о +22.1 +12.6 55 +25 +25 комфорт 1022.8 961.3
14 15.09 ЮВ 2 н/о н/о +22.3 +13.1 56 +25 +25 комфорт 1022.1 960.7
15 15.09 ЮЗ 1 н/о н/о +22.8 +13.5 56 +26 +26 жарко 1021.4 960.2
16 15.09 Ю 1 н/о н/о +21.9 +13.5 59 +25 +25 комфорт 1021.2 959.8
17 15.09 штиль 0 н/о н/о +20.3 +13.9 67 +22 +22 комфорт 1020.9 959.2
18 15.09 СЗ 1 н/о н/о +19.0 +14.6 76 +21 +21 комфорт 1021.1 959.1 +11.5 +23.2 0.0
19 15.09 З 1 н/о н/о +17.3 +14.3 83 +18 +18 1021.2 958.9
20 15.09 СЗ 1 н/о н/о +15.8 +14.1 90 +16 +16 1021.5 958.8
21 15.09 СЗ 2 н/о н/о +15.4 +14.4 94 +15 +15 1021.5 958.8
22 15.09 СЗ 1 н/о н/о +15.2 +14.0 93 +16 +16 1021.5 958.7
23 15.09 СЗ 1 н/о н/о +13.7 +12.9 95 +14 +14 1021.8 958.6
00 16.09 штиль 0 н/о н/о +12.6 +12.0 96 +12 +12 1021.9 958.5
01 16.09 СЗ 1 н/о н/о +12.5 +12.3 99 +12 +12 1021.5 958.1
02 16.09 штиль 0 н/о н/о +11.6 +11.3 98 +11 +11 1021.5 957.9
03 16.09 СЗ 1 н/о н/о +11.4 +11.4 100 +11 +11 1021.5 957.8
04 16.09 штиль 0 н/о осадки н/о +11.0 +11.0 100 +10 +10 1021.2 957.5 0.1
05 16.09 штиль 0 н/о н/о +10.2 +9.9 98 +9 +9 1021.4 957.5
06 16.09 штиль 0 н/о {осадки} н/о +13.1 +12.6 97 +13 +13 1020.5 957.3 +10.2 +19.0 0.1
07 16.09 штиль 0 н/о н/о +18.2 +15.7 85 +18 +18 1019.3 957.3
08 16.09 ЮЗ 2 н/о н/о +21.9 +14.0 61 +25 +25 комфорт 1018.5 957.3
09 16.09 З 2 н/о н/о +23.0 +13.7 56 +26 +26 жарко 1018.3 957.3
10 16.09 З 2 н/о н/о +24.2 +13.7 52 +26 +26 жарко 1017.6 956.9
11 16.09 Ю 1 н/о н/о +25.3 +14.1 50 +28 +28 жарко 1016.7 956.2
12 16.09 ЮВ 2 н/о н/о +26.0 +14.4 49 +28 +28 жарко 1015.8 955.5
13 16.09 В 1 н/о н/о +24.9 +16.1 58 +28 +28 жарко 1015.5 955.1
14 16.09 В 2 н/о н/о +23.7 +16.5 64 +27 +27 жарко 1015.3 954.7
15 16.09 В 2 н/о н/о +23.2 +16.5 66 +28 +28 душно 1015.2 954.5
16 16.09 ЮВ 1 н/о н/о +21.9 +16.9 73 +26 +26 душно 1015.5 954.5
17 16.09 штиль 0 н/о н/о +21.0 +17.0 78 +25 +25 комфорт 1015.6 954.4
18 16.09 штиль 0 н/о н/о +19.2 +17.4 89 +21 +21 комфорт 1015.9 954.4 +12.2 +26.6
19 16.09 СЗ 1 н/о н/о +18.2 +16.9 92 +20 +20 1016.1 954.3
20 16.09 штиль 0 н/о н/о +17.9 +16.8 93 +18 +18 1016.3 954.5
21 16.09 штиль 0 н/о н/о +17.8 +16.9 94 +18 +18 1016.0 954.2
22 16.09 штиль 0 н/о н/о +17.6 +17.1 97 +18 +18 1016.2 954.3 0.0
23 16.09 ЮЗ 1 н/о н/о +17.2 +17.1 99 +18 +18 1016.6 954.6 9
00 17.09 С 1 н/о ливневой дождь н/о +16.2 +16.2 100 +17 +17 1016.5 954.3 10
01 17.09 штиль 0 н/о ливневой дождь н/о +16.1 +16.1 100 +16 +16 1015.4 953.2 0.1
02 17.09 З 2 н/о в посл. час осадки н/о +16.0 +16.0 100 +16 +16 1015.2 953.0 0.1
03 17.09 СЗ 2 н/о {ливн. осадки} н/о +15.8 +15.8 100 +16 +16 1015.1 952.9 0.2
04 17.09 СЗ 2 н/о н/о +15.7 +15.7 100 +16 +16 1015.2 952.9
05 17.09 штиль 0 н/о н/о +15.3 +15.3 100 +15 +15 1015.4 953.0
06 17.09 ЮВ 2 н/о {ливн. осадки} н/о +15.4 +15.4 100 +15 +15 1015.4 953.1 +15.3 +19.6 10
07 17.09 СЗ 2 н/о н/о +17.0 +15.0 88 +17 +17 1015.5 953.5
08 17.09 З 1 н/о н/о +18.9 +13.7 72 +21 +21 комфорт 1015.4 953.7
09 17.09 З 1 н/о н/о +18.9 +13.7 72 +21 +21 комфорт 1015.4 953.7
10 17.09 В 1 н/о н/о +19.7 +14.7 73 +23 +23 комфорт 1014.9 953.5
11 17.09 ЮВ 2 н/о в посл. час осадки н/о +20.0 +15.9 77 +23 +23 комфорт 1014.6 953.3 0.0
12 17.09 В 1 н/о {осадки} н/о +19.9 +16.0 78 +23 +23 комфорт 1014.0 952.7 0.0
13 17.09 В 1 н/о н/о +20.4 +17.1 81 +25 +25 комфорт 1013.2 952.1
14 17.09 ЮВ 3 н/о н/о +20.7 +17.2 80 +25 +25 комфорт 1012.9 951.8 0.0
15 17.09 В 2 н/о н/о +19.7 +16.8 83 +23 +23 комфорт 1012.9 951.6 0.0
16 17.09 ЮВ 1 н/о н/о +18.4 +16.2 87 +20 +20 1013.2 951.6
17 17.09 В 1 н/о н/о +17.1 +15.8 92 +18 +18 1013.7 951.8
18 17.09 штиль 0 н/о н/о +15.9 +15.6 98 +16 +16 1014.5 952.3 +15.4 +21.1 0.0
19 17.09 штиль 0 н/о н/о +15.1 +15.0 99 +15 +15 1014.9 952.5
20 17.09 штиль 0 н/о н/о +14.5 +14.1 97 +14 +14 1015.3 952.7
21 17.09 З 2 н/о н/о +14.1 +12.1 88 +14 +14 1015.8 953.1
22 17.09 З 1 н/о н/о +14.5 +8.7 68 +15 +15 1016.2 953.5
23 17.09 СЗ 2 н/о н/о +14.5 +7.6 63 +14 +14 1016.6 953.8
00 18.09 СЗ 2 н/о н/о +13.0 +6.4 64 +12 +12 1017.5 954.3
01 18.09 СЗ 1 н/о н/о +12.6 +5.8 63 +13 +13 1017.8 954.5
02 18.09 СЗ 2 н/о н/о +13.0 +6.6 65 +12 +12 1018.1 954.9
03 18.09 СЗ 1 н/о н/о +12.6 +4.9 59 +13 +13 1019.0 955.6
04 18.09 штиль 0 н/о н/о +11.8 +6.1 68 +11 +11 1019.9 956.3
05 18.09 штиль 0 н/о н/о +10.9 +5.5 69 +10 +10 1021.2 957.3
06 18.09 С 1 н/о н/о +10.6 +5.0 68 +10 +10 1021.9 957.9 +10.5 +15.9
07 18.09 СЗ 1 н/о н/о +12.2 +4.1 58 +12 +12 1022.0 958.4
08 18.09 СЗ 2 н/о н/о +13.3 +3.3 51 +13 +13 1022.4 959.0
09 18.09 СЗ 2 н/о н/о +14.3 +2.5 45 +14 +14 1022.1 958.9
10 18.09 С 1 н/о н/о +15.8 +3.5 44 +17 +17 1022.0 959.1
11 18.09 СЗ 2 н/о н/о +16.9 +3.5 41 +17 +17 1021.4 958.8
12 18.09 С 1 н/о н/о +16.9 +2.5 38 +18 +18 1021.3 958.7
13 18.09 штиль 0 н/о н/о +17.2 +3.1 39 +17 +17 1021.1 958.6
14 18.09 ЮВ 3 н/о н/о +16.9 +1.7 36 +17 +17 1021.3 958.7
15 18.09 В 2 н/о н/о +14.3 +2.5 45 +14 +14 1022.0 958.8
16 18.09 штиль 0 н/о н/о +14.5 +4.8 52 +14 +14 1022.0 958.9
17 18.09 СВ 1 н/о н/о +11.9 +3.4 56 +12 +12 1023.0 959.2
18 18.09 штиль 0 н/о н/о +10.7 +3.9 63 +10 +10 1023.9 959.8 +10.5 +17.6
19 18.09 штиль 0 н/о н/о +9.6 +4.4 70 +9 +9 1024.7 960.3
20 18.09 штиль 0 н/о н/о +7.7 +4.1 78 +7 +7 1025.3 960.5
21 18.09 штиль 0 н/о н/о +6.7 +3.8 82 +6 +6 1025.8 960.7
22 18.09 З 1 н/о н/о +7.1 +5.0 86 +6 +6 1025.7 960.7
23 18.09 штиль 0 н/о н/о +6.2 +4.2 87 +5 +5 1026.0 960.8
00 19.09 СЗ 1 н/о н/о +6.9 +4.2 83 +6 +6 1026.0 960.9
01 19.09 СЗ 1 н/о н/о +6.2 +3.3 82 +5 +5 1025.9 960.7
02 19.09 СЗ 1 н/о н/о +5.7 +2.3 79 +5 +5 1025.8 960.5
03 19.09 СЗ 1 н/о н/о +5.1 +2.1 81 +4 +4 1026.2 960.7
04 19.09 СЗ 2 н/о н/о +5.0 +2.0 81 +2 +2 1026.3 960.8
05 19.09 штиль 0 н/о н/о +4.0 +2.2 88 +3 +3 1026.9 961.1
06 19.09 штиль 0 н/о н/о +6.2 +3.2 81 +5 +5 1026.9 961.6 +3.9 +10.7
07 19.09 штиль 0 н/о н/о +9.3 +4.8 73 +9 +9 1026.5 962.0
08 19.09 СЗ 1 н/о н/о +11.2 +3.9 61 +11 +11 1026.7 962.5
09 19.09 СЗ 1 н/о н/о +12.4 +3.3 54 +13 +13 1026.3 962.4
10 19.09 СЗ 1 н/о н/о +13.9 +3.6 50 +14 +14 1025.6 962.1
11 19.09 С 1 н/о н/о +13.8 +2.1 45 +14 +14 1025.5 962.0
12 19.09 СЗ 1 н/о н/о +15.1 +5.4 52 +16 +16 1024.8 961.6
13 19.09 СЗ 1 н/о н/о +14.5 +3.3 47 +15 +15 1025.4 962.0
14 19.09 СЗ 1 н/о н/о +15.3 +3.7 46 +16 +16 1025.0 961.8
15 19.09 СВ 1 н/о н/о +13.8 +2.7 47 +14 +14 1025.3 961.8
16 19.09 СЗ 1 н/о н/о +13.6 +2.8 48 +14 +14 1025.4 961.8
17 19.09 СЗ 1 н/о н/о +10.4 +2.2 57 +10 +10 1026.8 962.4
18 19.09 штиль 0 н/о н/о +8.7 +3.3 69 +8 +8 1027.9 963.1 +5.8 +15.4
19 19.09 штиль 0 н/о н/о +7.6 +3.4 75 +7 +7 1028.8 963.7
20 19.09 штиль 0 н/о н/о +6.8 +3.2 78 +6 +6 1029.6 964.3
21 19.09 штиль 0 н/о н/о +5.4 +2.9 84 +4 +4 1030.2 964.5
22 19.09 штиль 0 н/о н/о +4.7 +2.5 86 +4 +4 1030.5 964.6
23 19.09 СЗ 1 н/о н/о +5.0 +2.0 81 +4 +4 1030.3 964.5
00 20.09 СЗ 1 н/о н/о +5.3 +2.1 80 +4 +4 1030.2 964.5
01 20.09 З 2 н/о н/о +4.7 +1.5 80 +2 +2 1030.3 964.4
02 20.09 З 2 н/о н/о +4.5 +1.5 81 +2 +2 1029.7 963.8
03 20.09 штиль 0 н/о н/о +2.7 +1.2 90 +2 +2 1030.4 964.1
04 20.09 З 2 н/о н/о +3.0 +1.2 88 -0 -0 1030.2 964.0
05 20.09 СЗ 2 н/о н/о +3.1 +1.4 89 0 0 1030.2 964.0
06 20.09 штиль 0 н/о н/о +3.9 +2.2 89 +3 +3 1030.3 964.3 +2.3 +9.2
07 20.09 З 2 н/о н/о +9.2 +2.3 62 +8 +8 1029.3 964.5
08 20.09 СЗ 1 н/о н/о +11.5 +3.0 56 +12 +12 1029.0 964.8
09 20.09 З 1 н/о н/о +12.6 +1.9 48 +13 +13 1028.7 964.7
10 20.09 С 1 н/о н/о +13.4 +2.3 47 +14 +14 1028.5 964.7
11 20.09 штиль 0 н/о н/о +13.4 -0.6 38 +13 +13 1027.9 964.1
12 20.09 штиль 0 н/о н/о +14.4 -0.8 35 +14 +14 1027.4 963.8
14 20.09 В 2 н/о н/о +14.6 +1.2 40 +15 +15 1026.5 963.1
15 20.09 В 1 н/о н/о +13.9 +1.5 43 +15 +15 1026.7 963.1
16 20.09 В 1 н/о н/о +13.1 +2.0 47 +14 +14 1026.9 963.1
17 20.09 штиль 0 н/о н/о +10.2 +4.1 66 +10 +10 1027.6 963.2
18 20.09 СЗ 1 н/о н/о +7.8 +4.3 79 +7 +7 1028.7 963.7 +3.4 +15.6
19 20.09 штиль 0 н/о н/о +6.5 +4.3 86 +6 +6 1029.5 964.1
20 20.09 СЗ 1 н/о н/о +5.6 +3.6 87 +4 +4 1029.9 964.3
21 20.09 штиль 0 н/о н/о +5.2 +3.3 88 +4 +4 1030.0 964.3
22 20.09 штиль 0 н/о н/о +4.6 +3.1 90 +4 +4 1030.0 964.2
23 20.09 штиль 0 н/о н/о +4.6 +3.2 91 +4 +4 1029.6 963.8
00 21.09 штиль 0 н/о н/о +3.7 +2.6 93 +3 +3 1029.8 963.8
01 21.09 штиль 0 н/о н/о +3.6 +2.4 92 +2 +2 1029.7 963.6
02 21.09 штиль 0 н/о н/о +4.1 +2.7 91 +3 +3 1029.1 963.2
03 21.09 штиль 0 н/о н/о +3.9 +2.7 92 +3 +3 1028.8 962.9
04 21.09 штиль 0 н/о н/о +3.8 +2.7 93 +3 +3 1028.3 962.4
05 21.09 штиль 0 н/о н/о +3.9 +2.8 93 +3 +3 1028.2 962.3
06 21.09 штиль 0 н/о н/о +6.1 +4.2 88 +5 +5 1027.6 962.3 +3.3 +8.0
07 21.09 ЮВ 1 н/о н/о +11.6 +2.8 55 +12 +12 1026.6 962.5
08 21.09 Ю 2 н/о н/о +13.2 +1.8 46 +13 +13 1026.3 962.6
09 21.09 Ю 3 н/о н/о +14.4 +1.0 40 +14 +14 1025.9 962.4
10 21.09 ЮЗ 2 н/о н/о +15.5 +2.6 42 +16 +16 1025.3 962.1
11 21.09 Ю 1 н/о н/о +16.3 +3.0 41 +17 +17 1024.5 961.6 0.0
12 21.09 Ю 2 н/о н/о +16.6 +3.6 42 +17 +17 1024.3 961.4 0.0
13 21.09 Ю 2 н/о н/о +16.9 +3.9 42 +17 +17 1023.7 960.9
14 21.09 Ю 2 н/о н/о +17.4 +4.0 41 +18 +18 1022.8 960.2
15 21.09 Ю 2 н/о н/о +17.0 +4.0 42 +17 +17 1022.4 959.7
16 21.09 Ю 3 н/о н/о +15.8 +3.5 44 +15 +15 1022.5 959.6
17 21.09 ЮВ 2 н/о н/о +14.3 +4.5 52 +14 +14 1022.7 959.5
18 21.09 ЮВ 2 н/о н/о +12.7 +4.7 58 +12 +12 1022.8 959.2 +5.4 +17.7 0.0
19 21.09 штиль 0 н/о н/о +9.8 +5.0 72 +9 +9 1023.8 959.5
20 21.09 ЮВ 1 н/о н/о +11.3 +3.8 60 +11 +11 1023.0 959.1
21 21.09 ЮВ 2 н/о н/о +11.0 +4.0 62 +10 +10 1022.9 958.9
22 21.09 ЮВ 1 н/о н/о +10.1 +4.0 66 +10 +10 1022.5 958.4
23 21.09 штиль 0 н/о н/о +8.9 +4.3 73 +8 +8 1022.3 957.9
00 22.09 штиль 0 н/о н/о +7.8 +4.3 79 +7 +7 1022.1 957.5
01 22.09 З 1 н/о н/о +8.3 +3.9 74 +8 +8 1021.5 957.0
02 22.09 штиль 0 н/о н/о +8.2 +4.0 75 +8 +8 1021.3 956.8
03 22.09 штиль 0 н/о н/о +7.5 +3.9 78 +7 +7 1020.6 956.0
04 22.09 штиль 0 н/о н/о +6.7 +3.6 81 +6 +6 1020.2 955.5
05 22.09 Ю 1 н/о н/о +6.5 +4.0 84 +5 +5 1020.2 955.4
06 22.09 ЮВ 2 н/о н/о +9.9 +4.7 70 +9 +9 1019.3 955.3 +5.9 +13.0
07 22.09 ЮВ 3 н/о н/о +11.1 +5.0 66 +9 +9 1018.8 955.1
08 22.09 ЮВ 3 н/о н/о +12.6 +5.3 61 +11 +11 1018.0 954.7
09 22.09 ЮВ 4 н/о н/о +13.7 +5.6 58 +12 +12 1017.4 954.4
10 22.09 ЮВ 4 н/о н/о +14.0 +5.4 56 +13 +13 1017.0 954.1
11 22.09 Ю 3 н/о н/о +15.0 +5.8 54 +14 +14 1016.3 953.6
12 22.09 Ю 4 н/о н/о +15.8 +6.0 52 +15 +15 1015.1 952.7
13 22.09 ЮВ 3 н/о н/о +15.5 +6.0 53 +15 +15 1014.9 952.4

 

Местоположение метеостанции Крумбах (Австрия): широта 47.53 долгота 16.19 высота над уровнем моря 542 м.

В архиве по умолчанию представлена погода в Крумбахе за последнюю неделю. Архивные данные за месяц целиком и за предыдущие месяцы, начиная с января 2011 года, Вы можете получить, выбрав интересующий диапазон дат из раскрывающегося списка и нажав кнопку "Ввод!".


*Определитесь, кто Вы:
робот инопланетянин человек

Внимание! Время в таблицах - всемирное. Для получения местного времени необходимо прибавить поправку, которая равна 1 ч.

Смотрите также архив погоды в соседних городах и на ближайших метеорологических станциях:

Погода в Мёнихкирхене (Австрия) (12 км)
Погода в Бад-Тацмансдорфе (Австрия) (22 км)
Погода в Хиршенкогеле (Австрия) (29 км)
Погода в Семмеринге (Австрия) (29 км)
Погода в Хартберге (Австрия) (32 км)
Погода в Райхенау-ан-дер-Раксе (Австрия) (33 км)
Погода в Винер-Нойштадт (Австрия) (33 км)
Погода в Хоэ-Ванде (Австрия) (34 км)
Погода в Шопроне (Венгрия) (35 км)
Погода в Луцмансбурге (Австрия) (35 км)

Пояснения к столбцам:

Ветер - указаны скорость ветра в м/с - средняя за 10 мин, порывы в срок и между сроками (в фигурных скобках) и направление, откуда дует ветер: С - северный, СВ - северо-восточный, В - восточный, ЮВ - юго-восточный, Ю - южный, ЮЗ - юго-западный, З - западный, СЗ - северо-западный.
Видимость - горизонтальная дальность видимости в метрах или километрах. При видимости от 1 до 10 км при отсутствии осадков обычно наблюдается дымка, при ухудшении видимости до 1 км и менее - туман. В сухую погоду видимость может ухудшаться дымом, пылью или мглою.
Явления - указаны атмосферные явления, наблюдавшиеся в срок или в последний час перед сроком; фигурными скобками обозначены явления, наблюдавшиеся между сроками (за 1-3 часа до срока); квадратными скобками обозначены град или гололедные отложения с указанием их диаметра в мм.
Облачность - указаны через наклонную черту общая и нижняя облачность в баллах и высота нижней границы облаков в метрах; квадратными скобками обозначены формы облаков: Ci - перистые, Cs - перисто-слоистые, Cc - перисто-кучевые, Ac - высококучевые, As - высокослоистые, Sc - слоисто-кучевые, Ns - слоисто-дождевые, Cu - кучевые, Cb - кучево-дождевые. Подробнее классификацию облаков см. в Атласе облаков (PDF).
T - Температура воздуха - температура, измеренная на высоте 2 м над землей.
Td - Температура точки росы - температура, при понижении до которой содержащийся в воздухе водяной пар достигнет насыщения.
f - Относительная влажность воздуха - влажноcть воздуха, измеренная на высоте 2 м над землей.
Te - Эффективная температура - температура, которую ощущает одетый по сезону человек в тени. Характеристика душности погоды. При расчете учитывается влияние влажности воздуха и скорости ветра на теплоощущения человека.
Tes - Эффективная температура на солнце - температура, которую ощущает человек, с поправкой на солнечный нагрев. Характеристика знойности погоды. Зависит от высоты солнца над горизонтом, облачности и скорости ветра. Ночью, в пасмурную погоду, а также при ветре 12 м/с и более поправка равна нулю.
P - Атмосферное давление - приведенное к уровню моря атмосферное давление.
Po - Атмосферное давление - измеренное на уровне метеостанции атмосферное давление.
Tmin - Минимальная температура - минимум температуры воздуха на высоте 2 м над землей.
Tmax - Максимальная температура - максимум температуры воздуха на высоте 2 м над землей.
R - Количество осадков - Количество выпавших осадков за период времени, мм. При наведении курсора мыши на число - период времени, за который выпало указанное количество осадков.
R24 - Количество осадков - Количество выпавших осадков за 24 часа, мм.
S - Снежный покров - Высота снежного покрова, см. При наведении курсора мыши на число - состояние снежного покрова и степень покрытия местности в баллах.